www.pogodaiklimat.ru

Погода и климат >> Архив погоды >> Австралия >> Западная Австралия >> Телфер


ПОГОДА в Телфере

  • Прогноз погоды в Телфере
  • Монитор погоды в Телфере

АРХИВ ПОГОДЫ в Телфере

Время (UTC), дата Ветер
(напр.,м/с)
 
Видим.   Явления Облачность Т
(С)
Тd
(С)
f
(%)
Тe
(С)
Тes
(С)
Комфортность P
(гПа)
Po
(гПа)
Тmin
(С)
Tmax
(С)
R
(мм)
R24
(мм)
S
(см)
10 17.04 ЮВ 4 н/о 10/0
[]
+35.4 +14.1 28 +36 +36 очень
жарко
1010.9 978.1
12 17.04 В 5 н/о н/о +33.4 +12.9 29 +34 +34 очень
жарко
1012.7 979.9
13 17.04 ЮВ 3 н/о н/о +32.0 +12.8 31 +33 +33 жарко 1012.9 980.1 +38.5
15 17.04 ЮВ 3 н/о н/о +30.0 +12.9 35 +31 +31 жарко 1011.9 979.1
16 17.04 ЮВ 3 н/о 10/0
[]
+29.2 +13.0 37 +31 +31 жарко 1011.9 979.1
18 17.04 Ю 4 н/о н/о +29.6 +12.9 36 +31 +31 жарко 1011.5 978.7
19 17.04 Ю 4 н/о 10/0
[]
+29.2 +13.0 37 +31 +31 жарко 1011.5 978.7
21 17.04 ЮВ 6 н/о н/о +28.2 +12.9 39 +30 +30 жарко 1011.6 978.8
22 17.04 ЮВ 5 н/о 10/0
[]
+27.9 +13.1 40 +30 +30 жарко 1011.9 979.1
00 18.04 ЮВ 7 н/о н/о +29.5 +12.9 36 +31 +31 жарко 1012.9 980.1
01 18.04 В 6 н/о 10/0
[]
+31.3 +11.7 30 +32 +33 жарко 1012.9 980.1 +27.9
03 18.04 СВ 7 н/о н/о +36.9 +7.0 16 +35 +35 очень
жарко
1011.8 979.0
04 18.04 СВ 6 н/о 10/0
[]
+38.7 +6.4 14 +36 +39 очень
жарко
1010.4 977.6
06 18.04 С 8 н/о н/о +38.6 +6.3 14 +36 +36 очень
жарко
1008.8 976.1
07 18.04 СВ 5 н/о 9/0
[]
+38.9 +6.6 14 +36 +38 очень
жарко
1008.4 975.7
09 18.04 С 5 н/о н/о +37.8 +6.7 15 +35 +35 очень
жарко
1008.1 975.4
10 18.04 СВ 3 н/о 10/0
[]
+36.4 +7.4 17 +34 +34 очень
жарко
1008.9 976.2
12 18.04 СВ 2 н/о н/о +33.2 +9.3 23 +32 +32 жарко 1010.5 977.7
13 18.04 С 3 н/о 9/0
[]
+34.0 +12.4 27 +34 +34 очень
жарко
1011.2 978.4 +40.2
15 18.04 З 5 н/о н/о +30.3 +16.0 42 +33 +33 душно 1011.4 978.6
16 18.04 З 5 н/о {туман} 9/0
[]
+30.8 +14.8 38 +33 +33 душно 1010.6 977.8
18 18.04 СЗ 4 н/о н/о +30.5 +14.2 37 +32 +32 жарко 1009.6 976.9
19 18.04 СЗ 2 н/о {туман} 10/0
[]
+29.0 +15.5 44 +32 +32 душно 1009.6 976.9
21 18.04 штиль 0 н/о н/о +27.7 +16.3 50 +31 +31 душно 1010.1 977.3
22 18.04 С 2 н/о 10/0
[]
+27.5 +16.1 50 +31 +31 душно 1010.9 978.1
00 19.04 С 2 н/о н/о +29.2 +17.1 48 +33 +33 очень
душно
1011.7 978.9
01 19.04 С 3 н/о 10/0
[]
+31.9 +15.8 38 +35 +38 очень
душно
1012.2 979.4 +27.1
03 19.04 В 2 н/о н/о +35.1 +15.4 31 +37 +37 очень
душно
1010.9 978.1
04 19.04 С 3 н/о 8/0
[]
+36.2 +14.8 28 +37 +46 очень
жарко
1009.6 976.9
06 19.04 В 5 н/о н/о +30.9 +17.2 44 +35 +35 очень
душно
1009.0 976.3
07 19.04 ЮВ 7 н/о 6/0
[]
+31.7 +16.8 41 +35 +36 очень
душно
1008.4 975.7
09 19.04 СВ 3 н/о н/о +33.3 +14.4 32 +35 +35 душно 1008.4 975.7
10 19.04 С 2 н/о 10/0
[]
+32.3 +14.4 34 +34 +34 душно 1008.7 976.0
12 19.04 ЮЗ 2 н/о н/о +31.6 +16.0 39 +34 +34 душно 1009.6 976.9
13 19.04 ЮЗ 8 н/о 10/0
[]
+30.3 +15.6 41 +33 +33 душно 1010.4 977.6 +37.3
15 19.04 ЮВ 4 н/о н/о +28.1 +16.4 49 +32 +32 душно 1010.5 977.7
16 19.04 В 2 н/о 10/0
[]
+27.5 +16.5 51 +31 +31 душно 1010.5 977.7
18 19.04 ЮЗ 5 н/о н/о +28.2 +15.8 47 +31 +31 душно 1010.1 977.3
19 19.04 Ю 5 н/о ливневой дождь {туман} 10/0
[]
+25.6 +18.8 66 +31 +31 очень
душно
1010.6 977.8
21 19.04 Ю 6 н/о н/о +24.3 +17.8 67 +28 +28 душно 1011.4 978.6
22 19.04 ЮВ 8 н/о {туман} 9/0
[]
+23.8 +16.8 65 +27 +27 жарко 1011.8 979.0
00 20.04 ЮВ 10 н/о н/о +24.5 +11.8 45 +26 +26 жарко 1013.8 980.9
01 20.04 ЮВ 10 н/о {туман} н/о +24.8 +11.7 44 +26 +26 жарко 1014.2 981.3 +23.6
03 20.04 ЮВ 10 н/о н/о +26.9 +10.6 36 +28 +28 жарко 1014.1 981.2
04 20.04 Ю 10 н/о н/о +27.8 +10.5 34 +28 +28 жарко 1013.2 980.3
06 20.04 ЮВ 9 н/о н/о +28.4 +9.6 31 +28 +28 жарко 1011.8 979.0
07 20.04 ЮВ 8 н/о н/о +29.2 +9.9 30 +29 +29 жарко 1011.3 978.5
09 20.04 ЮВ 8 н/о н/о +28.5 +9.7 31 +29 +29 жарко 1011.7 978.9
10 20.04 ЮВ 7 н/о н/о +27.6 +9.0 31 +28 +28 жарко 1012.3 979.5
12 20.04 Ю 8 н/о н/о +25.1 +7.3 32 +25 +25 комфорт 1013.9 981.0
13 20.04 ЮВ 8 н/о 1/0
[]
+24.8 +7.4 33 +25 +25 комфорт 1014.3 981.4 +31.7
15 20.04 ЮВ 9 н/о н/о +23.3 +4.8 30 +23 +23 комфорт 1014.4 981.5
16 20.04 ЮВ 10 н/о н/о +22.4 +2.0 26 +22 +22 комфорт 1014.3 981.4
18 20.04 ЮВ 11 н/о н/о +20.6 -0.1 25 +20 +20 1014.4 981.5
19 20.04 ЮВ 11 н/о н/о +19.6 -1.5 24 +19 +19 1014.5 981.6
21 20.04 ЮВ 11 н/о н/о +17.9 -1.9 26 +17 +17 1015.1 982.2
22 20.04 ЮВ 10 н/о н/о +17.1 -1.5 28 +16 +16 1015.7 982.8
00 21.04 ЮВ 13 н/о н/о +18.9 -0.5 27 +18 +18 1017.2 984.2
01 21.04 ЮВ 13 н/о н/о +20.1 0.0 26 +19 +19 1017.7 984.7 +17.1
03 21.04 В 11 н/о н/о +24.4 +2.5 24 +24 +24 комфорт 1016.5 983.5
04 21.04 В 10 н/о н/о +25.2 +2.0 22 +24 +24 комфорт 1015.5 982.6
06 21.04 ЮВ 10 н/о н/о +26.7 +0.4 18 +25 +25 комфорт 1014.0 981.1
07 21.04 ЮВ 9 н/о н/о +26.6 -1.3 16 +24 +24 комфорт 1013.5 980.6
09 21.04 ЮВ 9 н/о н/о +25.6 -2.1 16 +24 +24 комфорт 1014.2 981.3
10 21.04 ЮВ 6 н/о н/о +24.4 -2.2 17 +23 +23 комфорт 1014.6 981.7
12 21.04 ЮВ 5 н/о н/о +22.2 -2.5 19 +21 +21 комфорт 1015.6 982.7
13 21.04 ЮВ 7 н/о н/о +21.6 -3.0 19 +21 +21 комфорт 1015.8 982.9 +27.9
15 21.04 ЮВ 9 н/о н/о +20.3 -3.4 20 +19 +19 1015.8 982.9
16 21.04 ЮВ 9 н/о н/о +19.3 -3.5 21 +18 +18 1015.4 982.5
18 21.04 ЮВ 9 н/о н/о +17.7 -3.7 23 +17 +17 1015.1 982.2
19 21.04 ЮВ 8 н/о н/о +17.2 -3.5 24 +16 +16 1015.1 982.2
21 21.04 ЮВ 8 н/о н/о +15.9 -3.0 27 +14 +14 1015.3 982.4
22 21.04 ЮВ 8 н/о н/о +15.1 -3.2 28 +13 +13 1015.7 982.8
00 22.04 ЮВ 10 н/о н/о +18.4 -1.4 26 +17 +17 1016.4 983.4
01 22.04 ЮВ 10 н/о н/о +21.3 -0.6 23 +21 +21 комфорт 1016.4 983.4 +15.2
03 22.04 ЮВ 8 н/о н/о +25.9 +1.2 20 +24 +24 комфорт 1015.5 982.6
04 22.04 В 8 н/о н/о +28.0 +2.2 19 +26 +26 жарко 1014.4 981.5
06 22.04 ЮВ 6 н/о н/о +31.3 +4.2 18 +29 +29 жарко 1012.8 980.0
07 22.04 ЮВ 7 н/о н/о +32.1 +4.8 18 +30 +30 жарко 1012.5 979.7
09 22.04 ЮВ 5 н/о н/о +31.3 +5.7 20 +29 +29 жарко 1012.9 980.1
10 22.04 Ю 4 н/о н/о +28.8 +5.6 23 +28 +28 жарко 1013.6 980.7
12 22.04 ЮВ 5 н/о н/о +27.0 +5.9 26 +26 +26 жарко 1014.9 982.0
13 22.04 ЮВ 6 н/о н/о +25.8 +5.4 27 +25 +25 комфорт 1015.1 982.2 +32.7
15 22.04 ЮВ 7 н/о н/о +24.6 +3.8 26 +24 +24 комфорт 1015.1 982.2
16 22.04 ЮВ 6 н/о н/о +23.2 +3.2 27 +23 +23 комфорт 1014.8 981.9
18 22.04 ЮВ 7 н/о н/о +21.6 +3.3 30 +22 +22 комфорт 1014.2 981.3
19 22.04 ЮВ 8 н/о н/о +21.3 +3.0 30 +21 +21 комфорт 1014.1 981.2
21 22.04 ЮВ 7 н/о н/о +20.0 +2.8 32 +20 +20 1014.7 981.8
22 22.04 ЮВ 6 н/о н/о +19.2 +3.0 34 +19 +19 1015.4 982.5
00 23.04 ЮВ 8 н/о н/о +22.9 +3.9 29 +23 +23 комфорт 1016.3 983.3
01 23.04 В 7 н/о н/о +27.0 +5.9 26 +26 +26 жарко 1016.4 983.4 +18.4
03 23.04 В 6 н/о н/о +31.9 +6.9 21 +30 +30 жарко 1014.8 981.9
04 23.04 В 7 н/о н/о +34.9 +6.2 17 +33 +33 жарко 1013.5 980.6
06 23.04 ЮВ 5 н/о н/о +35.3 +4.8 15 +33 +33 жарко 1012.0 979.2
07 23.04 В 6 н/о н/о +35.6 +4.0 14 +33 +33 жарко 1011.9 979.1
09 23.04 ЮВ 5 н/о н/о +34.1 +4.7 16 +32 +32 жарко 1012.6 979.8
10 23.04 ЮВ 4 н/о н/о +31.4 +5.8 20 +30 +30 жарко 1013.5 980.6
12 23.04 ЮВ 4 н/о н/о +29.8 +5.8 22 +28 +28 жарко 1014.9 982.0
13 23.04 Ю 5 н/о 8/0
[]
+29.1 +5.9 23 +28 +28 жарко 1015.4 982.5 +36.5
15 23.04 ЮВ 5 н/о н/о +25.9 +5.5 27 +25 +25 комфорт 1015.5 982.6
16 23.04 ЮВ 6 н/о 5/0
[]
+25.9 +4.9 26 +25 +25 комфорт 1015.4 982.5
18 23.04 ЮВ 6 н/о н/о +23.9 +3.8 27 +23 +23 комфорт 1015.5 982.6
19 23.04 ЮВ 6 н/о 9/0
[]
+23.5 +2.9 26 +23 +23 комфорт 1015.3 982.4
21 23.04 ЮВ 5 н/о н/о +21.8 +3.0 29 +22 +22 комфорт 1016.2 983.2
22 23.04 ЮВ 5 н/о 9/0
[]
+21.3 +2.6 29 +21 +21 комфорт 1016.5 983.5
00 24.04 ЮВ 6 н/о н/о +25.9 +4.4 25 +25 +25 комфорт 1017.4 984.4
01 24.04 В 7 н/о 3/0
[]
+28.1 +4.4 22 +27 +28 жарко 1017.7 984.7 +20.6
03 24.04 В 8 н/о н/о +32.8 +4.6 17 +30 +30 жарко 1016.3 983.3
04 24.04 В 4 н/о н/о +33.5 +4.2 16 +31 +31 жарко 1015.1 982.2
06 24.04 ЮВ 6 н/о н/о +33.8 +3.6 15 +31 +31 жарко 1013.5 980.6
07 24.04 ЮВ 6 н/о 1/0
[]
+34.3 +3.0 14 +31 +34 жарко 1013.3 980.4
09 24.04 В 6 н/о н/о +32.6 +0.6 13 +29 +29 жарко 1013.8 980.9
10 24.04 ЮВ 3 н/о н/о +29.5 +1.1 16 +27 +27 жарко 1014.4 981.5

 

Местоположение метеостанции Телфер (Западная Австралия, Австралия): широта -21.71 долгота 122.21 высота над уровнем моря 292 м.

В архиве по умолчанию представлена погода в Телфере за последнюю неделю. Архивные данные за месяц целиком и за предыдущие месяцы, начиная с января 2011 года, Вы можете получить, выбрав интересующий диапазон дат из раскрывающегося списка и нажав кнопку "Ввод!".


*Определитесь, кто Вы:
робот инопланетянин человек

Внимание! Время в таблицах - всемирное. Для получения местного времени необходимо прибавить поправку, которая равна 8 ч.

Смотрите также архив погоды в соседних городах и на ближайших метеорологических станциях:

Погода в Марбл-баре (Западная Австралия, Австралия) (261 км)
Погода в Мандоре (Западная Австралия, Австралия) (262 км)
Погода в Ньюмане (Западная Австралия, Австралия) (311 км)
Погода в Порт-Хедленде Apardoo (Западная Австралия, Австралия) (401 км)
Погода в Бруме (Западная Австралия, Австралия) (418 км)
Погода в Робак Запад (Западная Австралия, Австралия) (424 км)
Погода в Параберду (Западная Австралия, Австралия) (486 км)
Погода на Базе ВВС Curtin (Западная Австралия, Австралия) (489 км)
Погода в Дерби (Северная территория, Австралия) (507 км)
Погода в Фицрой-Кроссинге (Западная Австралия, Австралия) (526 км)

Пояснения к столбцам:

Ветер - указаны скорость ветра в м/с - средняя за 10 мин, порывы в срок и между сроками (в фигурных скобках) и направление, откуда дует ветер: С - северный, СВ - северо-восточный, В - восточный, ЮВ - юго-восточный, Ю - южный, ЮЗ - юго-западный, З - западный, СЗ - северо-западный.
Видимость - горизонтальная дальность видимости в метрах или километрах. При видимости от 1 до 10 км при отсутствии осадков обычно наблюдается дымка, при ухудшении видимости до 1 км и менее - туман. В сухую погоду видимость может ухудшаться дымом, пылью или мглою.
Явления - указаны атмосферные явления, наблюдавшиеся в срок или в последний час перед сроком; фигурными скобками обозначены явления, наблюдавшиеся между сроками (за 1-3 часа до срока); квадратными скобками обозначены град или гололедные отложения с указанием их диаметра в мм.
Облачность - указаны через наклонную черту общая и нижняя облачность в баллах и высота нижней границы облаков в метрах; квадратными скобками обозначены формы облаков: Ci - перистые, Cs - перисто-слоистые, Cc - перисто-кучевые, Ac - высококучевые, As - высокослоистые, Sc - слоисто-кучевые, Ns - слоисто-дождевые, Cu - кучевые, Cb - кучево-дождевые. Подробнее классификацию облаков см. в Атласе облаков (PDF).
T - Температура воздуха - температура, измеренная на высоте 2 м над землей.
Td - Температура точки росы - температура, при понижении до которой содержащийся в воздухе водяной пар достигнет насыщения.
f - Относительная влажность воздуха - влажноcть воздуха, измеренная на высоте 2 м над землей.
Te - Эффективная температура - температура, которую ощущает одетый по сезону человек в тени. Характеристика душности погоды. При расчете учитывается влияние влажности воздуха и скорости ветра на теплоощущения человека.
Tes - Эффективная температура на солнце - температура, которую ощущает человек, с поправкой на солнечный нагрев. Характеристика знойности погоды. Зависит от высоты солнца над горизонтом, облачности и скорости ветра. Ночью, в пасмурную погоду, а также при ветре 12 м/с и более поправка равна нулю.
P - Атмосферное давление - приведенное к уровню моря атмосферное давление.
Po - Атмосферное давление - измеренное на уровне метеостанции атмосферное давление.
Tmin - Минимальная температура - минимум температуры воздуха на высоте 2 м над землей.
Tmax - Максимальная температура - максимум температуры воздуха на высоте 2 м над землей.
R - Количество осадков - Количество выпавших осадков за период времени, мм. При наведении курсора мыши на число - период времени, за который выпало указанное количество осадков.
R24 - Количество осадков - Количество выпавших осадков за 24 часа, мм.
S - Снежный покров - Высота снежного покрова, см. При наведении курсора мыши на число - состояние снежного покрова и степень покрытия местности в баллах.